Location: Newark
(40.3500°N, 15.2333°E)
Time: 16:32:51
(UTC+00:00)

Vanguard 1 - Pass Details

Date: 01 February 2020
Orbit: 650 x 3833 km, 34.2° (Epoch: 16 February)

Event Time Altitude Azimuth Distance (km) Brightness Sun altitude
Rises 17:39:54 0° 266° (W) 2,969 14.4 -16.1°
Reaches altitude 10° 17:42:25 10° 252° (WSW) 2,050 13.0 -16.5°
Maximum altitude 17:46:07 26° 195° (SSW) 1,384 11.1 -17.2°
Drops below altitude 10° 17:50:35 10° 140° (SE) 2,497 11.8 -18.1°
Enters shadow 17:50:44 - 139° (SE) 2,556 11.9 -18.1°
Sets 17:54:00 0° 128° (SE) 3,792 - -18.7°
